Location: Songkhla
(7.2000°N, 100.6000°E)
Time: 02:27:30
(UTC+07:00)

BRICSAT 2 - Pass Details

Date: 25 June 2021
Orbit: 295 x 638 km, 28.5° (Epoch: 28 July)

Event Time Altitude Azimuth Distance (km) Brightness Sun altitude
Rises 07:46:16 0° 219° (SW) 2,525 ? 22.6°
Reaches altitude 10° 07:48:57 10° 203° (SSW) 1,565 ? 23.2°
Maximum altitude 07:51:43 21° 152° (SSE) 988 ? 23.8°
Drops below altitude 10° 07:54:14 10° 100° (E) 1,405 ? 24.4°
Sets 07:56:29 0° 83° (E) 2,187 ? 24.9°
